Home   Weather   Punta Cana   Past weeks

Flag for Dominican Republic Past Weather in Punta Cana, Dominican Republic — Yesterday and Last 2 Weeks

Now
79 °F

Passing clouds.


Feels Like: 82 °F
Forecast: 76 / 82 °F
Wind: 5 mph from Northeast

Location: Punta Cana

Current Time: Dec 7, 2016 at 5:01:31 am

Latest Report: Dec 7, 2016 at 4:00 am


Visibility: N/A

Pressure: 29.98 "Hg

Humidity: 89%

Dew Point: 75 °F

Location of Punta CanaLocation

Past Weather in Punta Cana — Graph

°F

Punta Cana Temperature Yesterday

Maximum temperature yesterday: 84 °F (at 12:00 pm)
Minimum temperature yesterday: 75 °F (at 7:00 am)
Average temperature yesterday: 80 °F

High & Low Weather Summary for the Past Weeks

 TemperatureHumidityPressure
High84 °F (Nov 23, 11:00 am)100% (Nov 22, 5:00 am)30.07 "Hg (Nov 22, 5:00 am)
Low70 °F (Dec 1, 7:00 am)22% (Nov 22, 7:00 am)29.77 "Hg (Nov 27, 4:00 pm)
Average79 °F86%29.93 "Hg
* Reported Nov 22 5:00 am — Dec 7 4:00 am, Punta Cana, Weather by CustomWeather, © 2016

Note: Actual official high and low records may vary slightly from our data, if they occured in-between our weather recording intervals... More about our weather records

Advertising

Punta Cana Weather History for the Previous 24 Hours

Scroll right to see more
 ConditionsComfort  
Time TempWeatherWind HumidityBarometerVisibility
4:00 am
Wed, Dec 7
79 °FPassing clouds.5 mph89%29.98 "HgN/A
3:00 am77 °FPassing clouds.5 mph89%29.98 "HgN/A
2:02 am79 °FPassing clouds.5 mph89%30.01 "HgN/A
1:00 am79 °FPassing clouds.7 mph89%30.01 "HgN/A
12:00 am79 °FPassing clouds.9 mph89%30.01 "HgN/A
11:00 pm
Tue, Dec 6
79 °FPassing clouds.6 mph84%30.04 "HgN/A
10:00 pm79 °FPassing clouds.8 mph84%30.04 "HgN/A
9:00 pm79 °FPassing clouds.7 mph84%30.04 "HgN/A
8:00 pm79 °FPassing clouds.7 mph84%30.01 "HgN/A
7:00 pm79 °FPassing clouds.6 mph84%30.01 "HgN/A
6:00 pm81 °FPassing clouds.7 mph79%30.01 "HgN/A
5:00 pm82 °FPassing clouds.9 mph79%30.01 "HgN/A
4:00 pm82 °FPassing clouds.12 mph79%29.98 "HgN/A
2:00 pm84 °FPassing clouds.9 mph74%30.01 "HgN/A
1:00 pm82 °FPassing clouds.14 mph79%30.04 "HgN/A
12:00 pm84 °FPassing clouds.12 mph74%30.07 "HgN/A
11:00 am82 °FPassing clouds.14 mph79%30.07 "HgN/A
10:00 am82 °FPassing clouds.8 mph79%30.07 "HgN/A
9:00 am81 °FPassing clouds.12 mph84%30.07 "HgN/A
8:00 am79 °FScattered clouds.9 mph89%30.04 "HgN/A
7:00 am75 °FRain. Partly sunny.12 mph94%30.01 "Hg4 mi
6:00 am77 °FRain. Partly cloudy.12 mph94%30.01 "Hg4 mi
5:00 am79 °FPassing clouds.12 mph84%29.98 "HgN/A
Weather by CustomWeather, © 2016

See weather overviewHow to use our weather pages